| time (UTC) | temp F | wind direction | speed MPH | gust MPH | rain 1hr in | rain 24hr in | rain mn in | humidity % | barometer mb |
| 20260831092210 | 67 | 116 | 0.0 | 0.0 | 0.02 | 0.00 | 0.09 | 98 | 1019.0 |
| 20260831091710 | 67 | 77 | 0.0 | 0.0 | 0.02 | 0.00 | 0.09 | 98 | 1019.0 |
| 20260831091210 | 67 | 80 | 0.0 | 0.0 | 0.02 | 0.00 | 0.09 | 98 | 1019.0 |
| 20260831090712 | 67 | 78 | 0.0 | 0.0 | 0.02 | 0.00 | 0.09 | 98 | 1019.0 |
| 20260831090210 | 67 | 44 | 0.0 | 0.0 | 0.02 | 0.00 | 0.09 | 98 | 1019.0 |
| 20260831085709 | 67 | 35 | 0.0 | 0.0 | 0.02 | 0.00 | 0.09 | 98 | 1019.0 |
| 20260831085209 | 67 | 101 | 0.0 | 0.0 | 0.02 | 0.00 | 0.09 | 98 | 1020.0 |
| 20260831084711 | 67 | 159 | 0.0 | 0.0 | 0.02 | 0.00 | 0.09 | 98 | 1020.0 |
| 20260831084209 | 67 | 63 | 0.0 | 0.0 | 0.01 | 0.00 | 0.09 | 98 | 1020.0 |
| 20260831083710 | 67 | 108 | 0.0 | 0.0 | 0.01 | 0.00 | 0.08 | 98 | 1020.0 |
| 20260831083210 | 67 | 146 | 0.0 | 0.0 | 0.01 | 0.00 | 0.08 | 98 | 1020.0 |
| 20260831082710 | 67 | 85 | 0.0 | 0.0 | 0.01 | 0.00 | 0.07 | 98 | 1020.0 |
| 20260831082209 | 67 | 56 | 0.0 | 0.0 | 0.01 | 0.00 | 0.07 | 98 | 1020.0 |
| 20260831081709 | 67 | 138 | 0.0 | 0.0 | 0.01 | 0.00 | 0.07 | 98 | 1020.0 |
| 20260831081210 | 67 | 71 | 0.0 | 0.0 | 0.03 | 0.00 | 0.07 | 98 | 1020.0 |
| 20260831080709 | 67 | 152 | 0.0 | 0.0 | 0.04 | 0.00 | 0.07 | 98 | 1020.0 |
| 20260831080209 | 67 | 67 | 0.0 | 0.0 | 0.04 | 0.00 | 0.07 | 98 | 1020.0 |
| 20260831075710 | 67 | 156 | 0.0 | 0.0 | 0.04 | 0.00 | 0.07 | 97 | 1020.0 |
| 20260831075209 | 67 | 59 | 0.0 | 0.0 | 0.05 | 0.00 | 0.07 | 98 | 1020.0 |
| 20260831074709 | 67 | 138 | 0.0 | 0.0 | 0.05 | 0.00 | 0.07 | 97 | 1020.0 |
| 20260831074209 | 67 | 116 | 0.0 | 0.0 | 0.05 | 0.00 | 0.07 | 97 | 1020.0 |
| 20260831073709 | 67 | 135 | 0.0 | 0.0 | 0.05 | 0.00 | 0.07 | 97 | 1020.0 |
| 20260831073210 | 67 | 116 | 0.0 | 0.0 | 0.05 | 0.00 | 0.07 | 97 | 1020.0 |
| 20260831072709 | 67 | 78 | 0.0 | 0.0 | 0.04 | 0.00 | 0.06 | 97 | 1020.0 |
| 20260831072209 | 67 | 57 | 0.0 | 0.0 | 0.04 | 0.00 | 0.06 | 97 | 1020.0 |
| 20260831071709 | 67 | 83 | 0.0 | 0.0 | 0.04 | 0.00 | 0.06 | 97 | 1020.0 |
| 20260831071210 | 67 | 54 | 0.0 | 0.0 | 0.03 | 0.00 | 0.05 | 97 | 1020.0 |
| 20260831070710 | 67 | 69 | 0.0 | 0.0 | 0.02 | 0.00 | 0.03 | 97 | 1020.0 |
| 20260831070210 | 67 | 68 | 0.0 | 0.0 | 0.02 | 0.00 | 0.03 | 97 | 1020.0 |
| 20260831065709 | 67 | 73 | 0.0 | 0.0 | 0.01 | 0.00 | 0.03 | 97 | 1020.0 |
| 20260831065210 | 67 | 76 | 0.0 | 0.0 | 0.01 | 0.00 | 0.02 | 97 | 1020.0 |
| 20260831064710 | 67 | 80 | 0.0 | 0.0 | 0.01 | 0.00 | 0.02 | 97 | 1020.0 |
| 20260831064213 | 67 | 86 | 0.0 | 0.0 | 0.01 | 0.00 | 0.02 | 97 | 1020.0 |
| 20260831063711 | 67 | 104 | 0.0 | 0.0 | 0.01 | 0.00 | 0.02 | 97 | 1020.0 |
| 20260831063210 | 68 | 137 | 0.0 | 0.0 | 0.01 | 0.00 | 0.02 | 97 | 1020.0 |
| 20260831062712 | 67 | 79 | 0.0 | 0.0 | 0.01 | 0.00 | 0.02 | 97 | 1020.0 |
| 20260831062209 | 67 | 331 | 0.0 | 0.0 | 0.01 | 0.00 | 0.02 | 97 | 1020.0 |
| 20260831061710 | 67 | 85 | 0.0 | 0.0 | 0.00 | 0.00 | 0.01 | 97 | 1020.0 |
| 20260831061210 | 68 | 66 | 0.0 | 0.0 | 0.00 | 0.00 | 0.01 | 97 | 1020.0 |
| 20260831060709 | 67 | 71 | 0.0 | 0.0 | 0.00 | 0.00 | 0.01 | 97 | 1021.0 |
| 20260831060209 | 68 | 70 | 0.0 | 0.0 | 0.00 | 0.00 | 0.01 | 97 | 1021.0 |
| 20260831055711 | 68 | 83 | 0.0 | 0.0 | 0.00 | 0.00 | 0.01 | 97 | 1021.0 |
| 20260831055209 | 67 | 94 | 0.0 | 0.0 | 0.00 | 0.00 | 0.01 | 97 | 1021.0 |
| 20260831054709 | 68 | 83 | 0.0 | 0.0 | 0.00 | 0.00 | 0.01 | 97 | 1021.0 |
| 20260831054209 | 68 | 64 | 0.0 | 0.0 | 0.00 | 0.00 | 0.01 | 97 | 1021.0 |
| 20260831053709 | 68 | 72 | 0.0 | 0.0 | 0.00 | 0.00 | 0.01 | 97 | 1021.0 |
| 20260831053210 | 68 | 69 | 0.0 | 0.0 | 0.00 | 0.00 | 0.01 | 97 | 1021.0 |
| 20260831052709 | 68 | 106 | 0.0 | 0.0 | 0.00 | 0.00 | 0.01 | 97 | 1021.0 |
| 20260831052211 | 68 | 73 | 0.0 | 0.0 | 0.01 | 0.00 | 0.01 | 97 | 1021.0 |
| 20260831051710 | 68 | 67 | 0.0 | 0.0 | 0.01 | 0.00 | 0.01 | 97 | 1021.0 |
| 20260831051210 | 68 | 60 | 0.0 | 0.0 | 0.01 | 0.00 | 0.01 | 97 | 1021.0 |
| 20260831050710 | 68 | 60 | 0.0 | 0.0 | 0.01 | 0.00 | 0.01 | 97 | 1021.0 |
| 20260831050209 | 67 | 80 | 0.0 | 0.0 | 0.01 | 0.00 | 0.01 | 97 | 1021.0 |
| 20260831045710 | 67 | 76 | 0.0 | 0.0 | 0.01 | 0.00 | 0.01 | 97 | 1021.0 |
| 20260831045209 | 68 | 73 | 0.0 | 0.0 | 0.01 | 0.00 | 0.01 | 97 | 1020.0 |
| 20260831044710 | 68 | 65 | 0.0 | 0.0 | 0.02 | 0.00 | 0.01 | 97 | 1021.0 |
| 20260831044210 | 67 | 98 | 0.0 | 0.0 | 0.02 | 0.00 | 0.01 | 97 | 1021.0 |
| 20260831043710 | 68 | 106 | 0.0 | 0.0 | 0.02 | 0.00 | 0.01 | 97 | 1021.0 |
| 20260831043209 | 68 | 263 | 0.0 | 0.0 | 0.02 | 0.00 | 0.01 | 97 | 1021.0 |
| 20260831042710 | 68 | 76 | 0.0 | 0.0 | 0.02 | 0.00 | 0.01 | 97 | 1020.0 |
| 20260831042209 | 68 | 153 | 0.0 | 0.0 | 0.01 | 0.00 | 0.00 | 97 | 1020.0 |
| 20260831041716 | 68 | 107 | 0.0 | 0.0 | 0.01 | 0.00 | 0.00 | 97 | 1021.0 |
| 20260831041210 | 68 | 203 | 0.0 | 0.0 | 0.01 | 0.00 | 0.00 | 97 | 1021.0 |
| 20260831040709 | 68 | 273 | 0.0 | 0.0 | 0.01 | 0.00 | 0.00 | 97 | 1021.0 |
| 20260831040209 | 68 | 143 | 0.0 | 0.0 | 0.02 | 0.00 | 0.18 | 97 | 1021.0 |
| 20260831035709 | 68 | 98 | 0.0 | 0.0 | 0.02 | 0.00 | 0.18 | 97 | 1021.0 |
| 20260831035210 | 68 | 70 | 0.0 | 0.0 | 0.01 | 0.00 | 0.18 | 96 | 1021.0 |
| 20260831034709 | 68 | 82 | 0.0 | 0.0 | 0.01 | 0.00 | 0.17 | 96 | 1021.0 |
| 20260831034209 | 68 | 20 | 0.0 | 0.0 | 0.01 | 0.00 | 0.17 | 96 | 1021.0 |
| 20260831033710 | 68 | 110 | 0.0 | 0.0 | 0.01 | 0.00 | 0.17 | 96 | 1021.0 |
| 20260831033209 | 68 | 93 | 0.0 | 0.0 | 0.01 | 0.00 | 0.17 | 96 | 1021.0 |
| 20260831032710 | 68 | 105 | 0.0 | 0.0 | 0.01 | 0.00 | 0.17 | 96 | 1021.0 |
| 20260831032210 | 68 | 67 | 0.0 | 0.0 | 0.01 | 0.00 | 0.17 | 96 | 1021.0 |
| 20260831031710 | 68 | 83 | 0.0 | 0.0 | 0.01 | 0.00 | 0.17 | 96 | 1021.0 |
| 20260831031210 | 68 | 73 | 0.0 | 0.0 | 0.02 | 0.00 | 0.17 | 96 | 1021.0 |
| 20260831030709 | 68 | 146 | 0.0 | 0.0 | 0.02 | 0.00 | 0.16 | 96 | 1021.0 |
| 20260831030209 | 67 | 350 | 0.0 | 0.0 | 0.03 | 0.00 | 0.16 | 96 | 1021.0 |
| 20260831025709 | 67 | 126 | 0.0 | 0.0 | 0.06 | 0.00 | 0.16 | 96 | 1021.0 |
| 20260831025209 | 67 | 148 | 0.0 | 0.0 | 0.07 | 0.00 | 0.16 | 96 | 1021.0 |
| 20260831024710 | 67 | 72 | 0.0 | 0.0 | 0.08 | 0.00 | 0.16 | 96 | 1021.0 |
| 20260831024209 | 67 | 70 | 0.0 | 0.0 | 0.10 | 0.00 | 0.16 | 96 | 1021.0 |
| 20260831023710 | 67 | 129 | 0.0 | 0.0 | 0.10 | 0.00 | 0.16 | 96 | 1021.0 |
| 20260831023210 | 67 | 62 | 0.0 | 0.0 | 0.10 | 0.00 | 0.16 | 95 | 1021.0 |
| 20260831022709 | 67 | 48 | 0.0 | 0.0 | 0.10 | 0.00 | 0.16 | 96 | 1021.0 |
| 20260831022210 | 67 | 36 | 0.0 | 0.0 | 0.10 | 0.00 | 0.16 | 95 | 1021.0 |
| 20260831021709 | 67 | 115 | 0.0 | 0.0 | 0.10 | 0.00 | 0.16 | 95 | 1021.0 |
| 20260831021209 | 66 | 62 | 0.0 | 0.0 | 0.09 | 0.00 | 0.15 | 95 | 1021.0 |
| 20260831020709 | 66 | 78 | 0.0 | 0.0 | 0.08 | 0.00 | 0.14 | 95 | 1021.0 |
| 20260831020209 | 66 | 74 | 0.0 | 0.0 | 0.06 | 0.00 | 0.12 | 95 | 1021.0 |
| 20260831015709 | 66 | 75 | 0.0 | 0.0 | 0.04 | 0.00 | 0.10 | 95 | 1021.0 |
| 20260831015209 | 66 | 78 | 0.0 | 0.0 | 0.02 | 0.00 | 0.09 | 95 | 1021.0 |
| 20260831014711 | 66 | 76 | 0.0 | 0.0 | 0.01 | 0.00 | 0.08 | 95 | 1021.0 |
| 20260831014209 | 66 | 50 | 0.0 | 0.0 | 0.00 | 0.00 | 0.06 | 94 | 1021.0 |
| 20260831013709 | 66 | 51 | 0.0 | 0.0 | 0.00 | 0.00 | 0.06 | 94 | 1021.0 |
| 20260831013209 | 66 | 62 | 0.0 | 0.0 | 0.00 | 0.00 | 0.06 | 94 | 1021.0 |
| 20260831012709 | 66 | 167 | 0.0 | 0.0 | 0.00 | 0.00 | 0.06 | 94 | 1021.0 |
| 20260831012209 | 66 | 143 | 0.0 | 0.0 | 0.00 | 0.00 | 0.06 | 94 | 1021.0 |
| 20260831011710 | 66 | 65 | 0.0 | 0.0 | 0.00 | 0.00 | 0.06 | 94 | 1021.0 |
| 20260831011210 | 66 | 126 | 0.0 | 0.0 | 0.00 | 0.00 | 0.06 | 94 | 1021.0 |
| 20260831010710 | 66 | 74 | 0.0 | 0.0 | 0.00 | 0.00 | 0.06 | 94 | 1021.0 |
| 20260831010209 | 66 | 85 | 0.0 | 0.0 | 0.00 | 0.00 | 0.06 | 94 | 1021.0 |
| 20260831005710 | 66 | 91 | 0.0 | 0.0 | 0.00 | 0.00 | 0.06 | 94 | 1021.0 |
| 20260831005209 | 66 | 162 | 0.0 | 0.0 | 0.00 | 0.00 | 0.06 | 94 | 1021.0 |
| 20260831004709 | 66 | 60 | 0.0 | 0.0 | 0.00 | 0.00 | 0.06 | 94 | 1021.0 |
| 20260831004211 | 66 | 103 | 0.0 | 0.0 | 0.00 | 0.00 | 0.06 | 94 | 1021.0 |
| 20260831003709 | 66 | 333 | 0.0 | 0.0 | 0.00 | 0.00 | 0.06 | 94 | 1021.0 |
| 20260831003209 | 66 | 114 | 0.0 | 0.0 | 0.00 | 0.00 | 0.06 | 94 | 1020.0 |
| 20260831002709 | 66 | 54 | 0.0 | 0.0 | 0.00 | 0.00 | 0.06 | 93 | 1020.0 |
| 20260831002209 | 66 | 58 | 0.0 | 0.0 | 0.00 | 0.00 | 0.06 | 93 | 1020.0 |
| 20260831001709 | 66 | 55 | 0.0 | 0.0 | 0.00 | 0.00 | 0.06 | 93 | 1020.0 |
| 20260831001209 | 66 | 117 | 0.0 | 0.0 | 0.00 | 0.00 | 0.06 | 93 | 1020.0 |
| 20260831000709 | 67 | 65 | 0.0 | 0.0 | 0.00 | 0.00 | 0.06 | 93 | 1020.0 |
| 20260831000211 | 66 | 63 | 0.0 | 0.0 | 0.00 | 0.00 | 0.06 | 93 | 1020.0 |
| 20260830235709 | 66 | 63 | 0.0 | 0.0 | 0.00 | 0.00 | 0.06 | 93 | 1020.0 |
| 20260830235210 | 66 | 122 | 0.0 | 0.0 | 0.01 | 0.00 | 0.06 | 92 | 1020.0 |
| 20260830234710 | 67 | 66 | 0.0 | 0.0 | 0.01 | 0.00 | 0.06 | 92 | 1020.0 |
| 20260830234210 | 66 | 62 | 0.0 | 0.0 | 0.01 | 0.00 | 0.06 | 92 | 1020.0 |
| 20260830233709 | 67 | 104 | 0.0 | 0.0 | 0.01 | 0.00 | 0.06 | 92 | 1020.0 |
| 20260830233209 | 67 | 63 | 0.0 | 0.0 | 0.02 | 0.00 | 0.06 | 92 | 1020.0 |
| 20260830232709 | 67 | 64 | 0.0 | 0.0 | 0.02 | 0.00 | 0.06 | 92 | 1020.0 |
| 20260830232209 | 67 | 78 | 0.0 | 0.0 | 0.02 | 0.00 | 0.06 | 92 | 1020.0 |
| 20260830231709 | 67 | 85 | 0.0 | 0.0 | 0.02 | 0.00 | 0.06 | 91 | 1020.0 |
| 20260830231210 | 67 | 82 | 0.0 | 0.0 | 0.02 | 0.00 | 0.06 | 91 | 1020.0 |
| 20260830230709 | 67 | 73 | 0.0 | 0.0 | 0.02 | 0.00 | 0.06 | 91 | 1020.0 |
| 20260830230209 | 67 | 56 | 0.0 | 0.0 | 0.02 | 0.00 | 0.06 | 90 | 1020.0 |
| 20260830225709 | 67 | 60 | 0.0 | 0.0 | 0.01 | 0.00 | 0.05 | 90 | 1020.0 |
| 20260830225209 | 67 | 148 | 0.0 | 0.0 | 0.01 | 0.00 | 0.05 | 90 | 1020.0 |
| 20260830224710 | 67 | 62 | 0.0 | 0.0 | 0.01 | 0.00 | 0.05 | 90 | 1020.0 |
| 20260830224209 | 67 | 87 | 0.0 | 0.0 | 0.01 | 0.00 | 0.05 | 90 | 1020.0 |
| 20260830223709 | 67 | 54 | 0.0 | 0.0 | 0.01 | 0.00 | 0.05 | 89 | 1020.0 |
| 20260830223209 | 68 | 47 | 0.0 | 0.0 | 0.00 | 0.00 | 0.04 | 89 | 1020.0 |
| 20260830222709 | 68 | 64 | 0.0 | 0.0 | 0.00 | 0.00 | 0.04 | 89 | 1020.0 |
| 20260830222210 | 68 | 62 | 0.0 | 0.0 | 0.00 | 0.00 | 0.04 | 88 | 1020.0 |
| 20260830221709 | 68 | 14 | 0.0 | 0.0 | 0.00 | 0.00 | 0.04 | 88 | 1020.0 |
| 20260830221209 | 68 | 24 | 0.0 | 0.0 | 0.00 | 0.00 | 0.04 | 87 | 1020.0 |
| 20260830220709 | 68 | 58 | 0.0 | 0.0 | 0.00 | 0.00 | 0.04 | 87 | 1020.0 |
| 20260830220209 | 68 | 28 | 0.0 | 0.0 | 0.00 | 0.00 | 0.04 | 86 | 1020.0 |
| 20260830215709 | 68 | 56 | 0.0 | 0.0 | 0.00 | 0.00 | 0.04 | 86 | 1020.0 |
| 20260830215209 | 68 | 24 | 0.0 | 0.0 | 0.00 | 0.00 | 0.04 | 85 | 1020.0 |
| 20260830214709 | 68 | 106 | 0.0 | 1.0 | 0.00 | 0.00 | 0.04 | 85 | 1020.0 |
| 20260830214209 | 68 | 61 | 0.0 | 0.0 | 0.00 | 0.00 | 0.04 | 85 | 1020.0 |
| 20260830213709 | 68 | 352 | 0.0 | 0.0 | 0.00 | 0.00 | 0.04 | 84 | 1020.0 |
| 20260830213209 | 68 | 45 | 0.0 | 0.0 | 0.00 | 0.00 | 0.04 | 84 | 1020.0 |
| 20260830212709 | 68 | 36 | 0.0 | 1.0 | 0.00 | 0.00 | 0.04 | 84 | 1020.0 |
| 20260830212209 | 68 | 38 | 1.0 | 2.0 | 0.00 | 0.00 | 0.04 | 83 | 1020.0 |
| 20260830211709 | 68 | 97 | 0.0 | 0.0 | 0.00 | 0.00 | 0.04 | 83 | 1020.0 |
| 20260830211210 | 68 | 3 | 0.0 | 2.0 | 0.00 | 0.00 | 0.04 | 83 | 1020.0 |
| 20260830210710 | 68 | 53 | 1.0 | 2.0 | 0.00 | 0.00 | 0.04 | 83 | 1020.0 |
| 20260830210216 | 68 | 175 | 0.0 | 0.0 | 0.00 | 0.00 | 0.04 | 84 | 1020.0 |
| 20260830205709 | 68 | 133 | 0.0 | 2.0 | 0.00 | 0.00 | 0.04 | 84 | 1020.0 |
| 20260830205209 | 68 | 172 | 2.0 | 2.0 | 0.00 | 0.00 | 0.04 | 84 | 1020.0 |
| 20260830204711 | 68 | 78 | 0.0 | 0.0 | 0.00 | 0.00 | 0.04 | 85 | 1020.0 |
| 20260830204212 | 68 | 47 | 0.0 | 0.0 | 0.00 | 0.00 | 0.04 | 84 | 1020.0 |
| 20260830203710 | 68 | 45 | 0.0 | 0.0 | 0.00 | 0.00 | 0.04 | 85 | 1021.0 |
| 20260830203209 | 68 | 30 | 0.0 | 1.0 | 0.00 | 0.00 | 0.04 | 84 | 1020.0 |
| 20260830202709 | 68 | 41 | 0.0 | 2.0 | 0.00 | 0.00 | 0.04 | 85 | 1020.0 |
| 20260830202209 | 68 | 47 | 0.0 | 4.0 | 0.00 | 0.00 | 0.04 | 85 | 1021.0 |
| 20260830201710 | 68 | 42 | 0.0 | 1.0 | 0.00 | 0.00 | 0.04 | 86 | 1021.0 |
| 20260830201209 | 68 | 47 | 0.0 | 0.0 | 0.00 | 0.00 | 0.04 | 86 | 1021.0 |
| 20260830200709 | 68 | 56 | 2.0 | 2.0 | 0.00 | 0.00 | 0.04 | 86 | 1021.0 |
| 20260830200209 | 68 | 187 | 0.0 | 0.0 | 0.00 | 0.00 | 0.04 | 86 | 1021.0 |
| 20260830195709 | 68 | 128 | 0.0 | 0.0 | 0.00 | 0.00 | 0.04 | 86 | 1021.0 |
| 20260830195213 | 68 | 58 | 0.0 | 0.0 | 0.00 | 0.00 | 0.04 | 86 | 1021.0 |
| 20260830194709 | 68 | 71 | 0.0 | 0.0 | 0.00 | 0.00 | 0.04 | 86 | 1021.0 |
| 20260830194210 | 68 | 243 | 2.0 | 3.0 | 0.00 | 0.00 | 0.04 | 86 | 1021.0 |
| 20260830193709 | 68 | 51 | 1.0 | 4.0 | 0.00 | 0.00 | 0.04 | 87 | 1021.0 |
| 20260830193209 | 68 | 29 | 0.0 | 3.0 | 0.00 | 0.00 | 0.04 | 87 | 1021.0 |
| 20260830192710 | 68 | 14 | 3.0 | 3.0 | 0.01 | 0.00 | 0.04 | 87 | 1021.0 |
| 20260830192209 | 68 | 56 | 0.0 | 0.0 | 0.01 | 0.00 | 0.04 | 88 | 1021.0 |
| 20260830191710 | 68 | 33 | 0.0 | 0.0 | 0.01 | 0.00 | 0.04 | 88 | 1021.0 |
| 20260830191209 | 68 | 58 | 0.0 | 3.0 | 0.02 | 0.00 | 0.04 | 88 | 1021.0 |
| 20260830190710 | 68 | 344 | 0.0 | 1.0 | 0.02 | 0.00 | 0.04 | 88 | 1021.0 |
| 20260830190210 | 68 | 31 | 0.0 | 0.0 | 0.02 | 0.00 | 0.04 | 89 | 1021.0 |
| 20260830185711 | 68 | 357 | 0.0 | 0.0 | 0.02 | 0.00 | 0.04 | 89 | 1021.0 |
| 20260830185209 | 68 | 20 | 0.0 | 0.0 | 0.02 | 0.00 | 0.04 | 88 | 1021.0 |
| 20260830184710 | 68 | 302 | 1.0 | 1.0 | 0.02 | 0.00 | 0.04 | 88 | 1021.0 |
| 20260830184209 | 68 | 80 | 0.0 | 0.0 | 0.02 | 0.00 | 0.04 | 88 | 1021.0 |
| 20260830183709 | 68 | 13 | 3.0 | 5.0 | 0.02 | 0.00 | 0.04 | 88 | 1021.0 |
| 20260830183209 | 68 | 87 | 0.0 | 2.0 | 0.02 | 0.00 | 0.04 | 88 | 1021.0 |
| 20260830182709 | 68 | 19 | 0.0 | 3.0 | 0.01 | 0.00 | 0.03 | 87 | 1021.0 |
| 20260830182209 | 69 | 344 | 0.0 | 4.0 | 0.01 | 0.00 | 0.03 | 86 | 1021.0 |
| 20260830181710 | 69 | 240 | 1.0 | 4.0 | 0.01 | 0.00 | 0.03 | 86 | 1021.0 |
| 20260830181209 | 69 | 36 | 2.0 | 3.0 | 0.00 | 0.00 | 0.02 | 85 | 1021.0 |
| 20260830180709 | 70 | 4 | 4.0 | 4.0 | 0.00 | 0.00 | 0.02 | 85 | 1021.0 |
| 20260830180212 | 70 | 7 | 0.0 | 1.0 | 0.00 | 0.00 | 0.02 | 84 | 1021.0 |
| 20260830175710 | 70 | 21 | 1.0 | 2.0 | 0.00 | 0.00 | 0.02 | 84 | 1021.0 |
| 20260830175210 | 70 | 29 | 0.0 | 1.0 | 0.00 | 0.00 | 0.02 | 84 | 1021.0 |
| 20260830174709 | 70 | 58 | 0.0 | 2.0 | 0.00 | 0.00 | 0.02 | 84 | 1021.0 |
| 20260830174209 | 70 | 74 | 2.0 | 2.0 | 0.00 | 0.00 | 0.02 | 83 | 1021.0 |
| 20260830173709 | 71 | 235 | 1.0 | 2.0 | 0.00 | 0.00 | 0.02 | 83 | 1021.0 |
| 20260830173209 | 70 | 141 | 2.0 | 3.0 | 0.00 | 0.00 | 0.02 | 82 | 1021.0 |
| 20260830172710 | 71 | 65 | 0.0 | 2.0 | 0.00 | 0.00 | 0.02 | 83 | 1021.0 |
| 20260830172212 | 71 | 45 | 0.0 | 2.0 | 0.00 | 0.00 | 0.02 | 83 | 1021.0 |
| 20260830171714 | 71 | 354 | 0.0 | 0.0 | 0.00 | 0.00 | 0.02 | 83 | 1021.0 |
| 20260830171209 | 71 | 130 | 1.0 | 1.0 | 0.00 | 0.00 | 0.02 | 83 | 1021.0 |
| 20260830170709 | 71 | 186 | 0.0 | 0.0 | 0.00 | 0.00 | 0.02 | 83 | 1021.0 |
| 20260830170209 | 71 | 35 | 1.0 | 2.0 | 0.00 | 0.00 | 0.02 | 84 | 1021.0 |
| 20260830165710 | 71 | 59 | 0.0 | 0.0 | 0.00 | 0.00 | 0.02 | 84 | 1021.0 |
| 20260830165209 | 71 | 37 | 0.0 | 0.0 | 0.00 | 0.00 | 0.02 | 84 | 1021.0 |
| 20260830164709 | 71 | 24 | 0.0 | 0.0 | 0.00 | 0.00 | 0.02 | 83 | 1021.0 |
| 20260830164209 | 71 | 124 | 0.0 | 0.0 | 0.00 | 0.00 | 0.02 | 84 | 1021.0 |
| 20260830163710 | 71 | 131 | 0.0 | 0.0 | 0.00 | 0.00 | 0.02 | 85 | 1021.0 |
| 20260830163209 | 70 | 36 | 0.0 | 2.0 | 0.00 | 0.00 | 0.02 | 86 | 1021.0 |
| 20260830162709 | 70 | 24 | 0.0 | 0.0 | 0.00 | 0.00 | 0.02 | 88 | 1021.0 |
| 20260830162209 | 69 | 52 | 0.0 | 0.0 | 0.01 | 0.00 | 0.02 | 89 | 1021.0 |
| 20260830161712 | 69 | 56 | 0.0 | 0.0 | 0.01 | 0.00 | 0.02 | 91 | 1021.0 |
| 20260830161209 | 69 | 59 | 0.0 | 0.0 | 0.02 | 0.00 | 0.02 | 91 | 1021.0 |
| 20260830160709 | 68 | 128 | 0.0 | 0.0 | 0.02 | 0.00 | 0.02 | 91 | 1021.0 |
| 20260830160211 | 68 | 41 | 0.0 | 0.0 | 0.02 | 0.00 | 0.02 | 92 | 1021.0 |
| 20260830155710 | 68 | 314 | 0.0 | 0.0 | 0.02 | 0.00 | 0.02 | 91 | 1021.0 |
| 20260830155209 | 68 | 137 | 0.0 | 0.0 | 0.02 | 0.00 | 0.02 | 91 | 1021.0 |
| 20260830154709 | 67 | 86 | 0.0 | 0.0 | 0.02 | 0.00 | 0.02 | 91 | 1021.0 |
| 20260830154209 | 67 | 52 | 0.0 | 1.0 | 0.02 | 0.00 | 0.02 | 91 | 1022.0 |
| 20260830153710 | 67 | 50 | 0.0 | 1.0 | 0.02 | 0.00 | 0.02 | 91 | 1022.0 |
| 20260830153209 | 67 | 328 | 0.0 | 2.0 | 0.02 | 0.00 | 0.02 | 91 | 1022.0 |
| 20260830152709 | 67 | 148 | 0.0 | 0.0 | 0.02 | 0.00 | 0.02 | 90 | 1022.0 |
| 20260830152209 | 68 | 303 | 3.0 | 4.0 | 0.01 | 0.00 | 0.01 | 90 | 1022.0 |
| 20260830151709 | 68 | 84 | 2.0 | 3.0 | 0.01 | 0.00 | 0.01 | 89 | 1022.0 |
| 20260830151210 | 68 | 326 | 3.0 | 4.0 | 0.00 | 0.00 | 0.00 | 87 | 1021.0 |
| 20260830150709 | 69 | 39 | 3.0 | 3.0 | 0.00 | 0.00 | 0.00 | 85 | 1021.0 |
| 20260830150209 | 69 | 359 | 4.0 | 7.0 | 0.00 | 0.00 | 0.00 | 83 | 1021.0 |
| 20260830145709 | 70 | 44 | 3.0 | 4.0 | 0.00 | 0.00 | 0.00 | 81 | 1021.0 |
| 20260830145210 | 70 | 32 | 3.0 | 3.0 | 0.00 | 0.00 | 0.00 | 80 | 1021.0 |
| 20260830144709 | 71 | 11 | 0.0 | 3.0 | 0.00 | 0.00 | 0.00 | 79 | 1021.0 |
| 20260830144209 | 71 | 310 | 1.0 | 5.0 | 0.00 | 0.00 | 0.00 | 78 | 1021.0 |
| 20260830143713 | 71 | 340 | 2.0 | 2.0 | 0.00 | 0.00 | 0.00 | 77 | 1021.0 |
| 20260830143209 | 71 | 56 | 0.0 | 1.0 | 0.00 | 0.00 | 0.00 | 77 | 1021.0 |
| 20260830142710 | 71 | 353 | 0.0 | 0.0 | 0.00 | 0.00 | 0.00 | 77 | 1021.0 |
| 20260830142210 | 71 | 42 | 0.0 | 0.0 | 0.00 | 0.00 | 0.00 | 77 | 1021.0 |
| 20260830141710 | 71 | 356 | 0.0 | 0.0 | 0.00 | 0.00 | 0.00 | 76 | 1021.0 |
| 20260830141209 | 71 | 239 | 1.0 | 2.0 | 0.00 | 0.00 | 0.00 | 76 | 1021.0 |
| 20260830140709 | 71 | 35 | 0.0 | 2.0 | 0.00 | 0.00 | 0.00 | 75 | 1021.0 |
| 20260830140209 | 71 | 276 | 1.0 | 3.0 | 0.00 | 0.00 | 0.00 | 75 | 1021.0 |
| 20260830135710 | 71 | 3 | 0.0 | 0.0 | 0.00 | 0.00 | 0.00 | 76 | 1021.0 |
| 20260830135211 | 70 | 10 | 0.0 | 2.0 | 0.00 | 0.00 | 0.00 | 76 | 1021.0 |
| 20260830134710 | 70 | 56 | 0.0 | 0.0 | 0.00 | 0.00 | 0.00 | 78 | 1020.0 |
| 20260830134209 | 70 | 58 | 0.0 | 0.0 | 0.00 | 0.00 | 0.00 | 79 | 1020.0 |
| 20260830133709 | 70 | 60 | 0.0 | 0.0 | 0.00 | 0.00 | 0.00 | 78 | 1020.0 |
| 20260830133209 | 70 | 165 | 0.0 | 0.0 | 0.00 | 0.00 | 0.00 | 79 | 1021.0 |
| 20260830132710 | 69 | 54 | 0.0 | 0.0 | 0.00 | 0.00 | 0.00 | 79 | 1020.0 |
| 20260830132209 | 69 | 73 | 0.0 | 0.0 | 0.00 | 0.00 | 0.00 | 79 | 1020.0 |
| 20260830131709 | 69 | 60 | 0.0 | 1.0 | 0.00 | 0.00 | 0.00 | 79 | 1020.0 |
| 20260830131209 | 69 | 130 | 0.0 | 0.0 | 0.00 | 0.00 | 0.00 | 80 | 1020.0 |
| 20260830130711 | 69 | 65 | 0.0 | 0.0 | 0.00 | 0.00 | 0.00 | 80 | 1020.0 |
| 20260830130209 | 69 | 74 | 0.0 | 0.0 | 0.00 | 0.00 | 0.00 | 80 | 1020.0 |
| 20260830125709 | 69 | 81 | 0.0 | 0.0 | 0.00 | 0.00 | 0.00 | 80 | 1020.0 |
| 20260830125210 | 69 | 42 | 0.0 | 0.0 | 0.00 | 0.00 | 0.00 | 80 | 1020.0 |
| 20260830124709 | 68 | 68 | 0.0 | 0.0 | 0.00 | 0.00 | 0.00 | 80 | 1020.0 |
| 20260830124209 | 68 | 52 | 0.0 | 0.0 | 0.00 | 0.00 | 0.00 | 79 | 1020.0 |
| 20260830123710 | 68 | 62 | 0.0 | 0.0 | 0.00 | 0.00 | 0.00 | 79 | 1020.0 |
| 20260830123210 | 68 | 75 | 0.0 | 0.0 | 0.00 | 0.00 | 0.00 | 79 | 1021.0 |
| 20260830122709 | 68 | 336 | 0.0 | 0.0 | 0.00 | 0.00 | 0.00 | 78 | 1021.0 |
| 20260830122209 | 68 | 81 | 0.0 | 0.0 | 0.00 | 0.00 | 0.00 | 79 | 1020.0 |
| 20260830121709 | 68 | 16 | 0.0 | 0.0 | 0.00 | 0.00 | 0.00 | 80 | 1020.0 |
| 20260830121210 | 68 | 64 | 0.0 | 0.0 | 0.00 | 0.00 | 0.00 | 79 | 1020.0 |
| 20260830120711 | 68 | 103 | 0.0 | 0.0 | 0.00 | 0.00 | 0.00 | 78 | 1020.0 |
| 20260830120209 | 68 | 60 | 0.0 | 0.0 | 0.00 | 0.00 | 0.00 | 76 | 1020.0 |
| 20260830115709 | 69 | 81 | 0.0 | 0.0 | 0.00 | 0.00 | 0.00 | 75 | 1020.0 |
| 20260830115209 | 69 | 41 | 0.0 | 0.0 | 0.00 | 0.00 | 0.00 | 73 | 1020.0 |
| 20260830114709 | 69 | 150 | 0.0 | 1.0 | 0.00 | 0.00 | 0.00 | 72 | 1020.0 |
| 20260830114210 | 69 | 159 | 0.0 | 0.0 | 0.00 | 0.00 | 0.00 | 71 | 1020.0 |
| 20260830113709 | 69 | 144 | 0.0 | 0.0 | 0.00 | 0.00 | 0.00 | 71 | 1020.0 |
| 20260830113209 | 69 | 91 | 0.0 | 0.0 | 0.00 | 0.00 | 0.00 | 71 | 1020.0 |
| 20260830112709 | 69 | 64 | 0.0 | 0.0 | 0.00 | 0.00 | 0.00 | 72 | 1020.0 |
| 20260830112210 | 69 | 77 | 0.0 | 0.0 | 0.00 | 0.00 | 0.00 | 72 | 1020.0 |
| 20260830111720 | 69 | 70 | 0.0 | 0.0 | 0.00 | 0.00 | 0.00 | 71 | 1020.0 |
| 20260830111210 | 68 | 57 | 0.0 | 1.0 | 0.00 | 0.00 | 0.00 | 71 | 1020.0 |
| 20260830110709 | 68 | 60 | 0.0 | 1.0 | 0.00 | 0.00 | 0.00 | 71 | 1020.0 |
| 20260830110209 | 68 | 61 | 0.0 | 0.0 | 0.00 | 0.00 | 0.00 | 73 | 1020.0 |
| 20260830105710 | 68 | 71 | 0.0 | 0.0 | 0.00 | 0.00 | 0.00 | 72 | 1020.0 |
| 20260830105210 | 68 | 35 | 0.0 | 1.0 | 0.00 | 0.00 | 0.00 | 73 | 1020.0 |
| 20260830104709 | 68 | 136 | 0.0 | 0.0 | 0.00 | 0.00 | 0.00 | 72 | 1020.0 |
| 20260830104209 | 69 | 62 | 0.0 | 0.0 | 0.00 | 0.00 | 0.00 | 72 | 1020.0 |
| 20260830103709 | 69 | 129 | 0.0 | 0.0 | 0.00 | 0.00 | 0.00 | 72 | 1020.0 |
| 20260830103210 | 69 | 75 | 0.0 | 0.0 | 0.00 | 0.00 | 0.00 | 71 | 1020.0 |
| 20260830102709 | 69 | 72 | 0.0 | 0.0 | 0.00 | 0.00 | 0.00 | 72 | 1020.0 |
| 20260830102209 | 69 | 105 | 0.0 | 0.0 | 0.00 | 0.00 | 0.00 | 72 | 1020.0 |
| 20260830101709 | 69 | 98 | 0.0 | 0.0 | 0.00 | 0.00 | 0.00 | 72 | 1020.0 |
| 20260830101210 | 69 | 93 | 0.0 | 1.0 | 0.00 | 0.00 | 0.00 | 72 | 1020.0 |
| 20260830100709 | 69 | 60 | 0.0 | 1.0 | 0.00 | 0.00 | 0.00 | 72 | 1020.0 |
| 20260830100209 | 69 | 150 | 0.0 | 1.0 | 0.00 | 0.00 | 0.00 | 72 | 1020.0 |
| 20260830095710 | 69 | 52 | 1.0 | 1.0 | 0.00 | 0.00 | 0.00 | 72 | 1020.0 |
| 20260830095209 | 69 | 74 | 0.0 | 0.0 | 0.00 | 0.00 | 0.00 | 72 | 1020.0 |
| 20260830094711 | 69 | 111 | 0.0 | 0.0 | 0.00 | 0.00 | 0.00 | 72 | 1020.0 |
| 20260830094209 | 69 | 162 | 0.0 | 1.0 | 0.00 | 0.00 | 0.00 | 72 | 1020.0 |
| 20260830093709 | 69 | 139 | 1.0 | 1.0 | 0.00 | 0.00 | 0.00 | 73 | 1020.0 |
| 20260830093209 | 69 | 80 | 0.0 | 0.0 | 0.00 | 0.00 | 0.00 | 73 | 1020.0 |
| 20260830092710 | 69 | 65 | 0.0 | 1.0 | 0.00 | 0.00 | 0.00 | 72 | 1020.0 |